Scappoose, OR

6:26 PM PST on February 18, 2018 (GMT -0800)
Scappoose Industrial

Weather History for KSPB - February, 2013

Change the Weather History Date:

Saturday, February 16, 2013

  Actual Average Record
Temperature  
Mean Temperature 43 °F -  
Max Temperature 51 °F - 63 °F (2015)
Min Temperature 33 °F - 23 °F (2006)
Degree Days  
Heating Degree Days 23    
Month to date heating degree days 356  
Since 1 July heating degree days 3101  
Cooling Degree Days 0    
Month to date cooling degree days 0  
Year to date cooling degree days 0  
Moisture  
Dew Point 39 °F    
Average Humidity 83    
Maximum Humidity 100    
Minimum Humidity 66    
Precipitation  
Precipitation 0.14 in - 1.02 in (2017)
Month to date precipitation 0.44  
Year to date precipitation 2.48  
Sea Level Pressure  
Sea Level Pressure 30.25 in    
Wind  
Wind Speed 2 mph (East)    
Max Wind Speed 13 mph    
Max Gust Speed 20 mph    
Visibility 7 miles    
Events Rain    
T = Trace of Precipitation, MM = Missing Value Source: NWS Daily Summary

Daily Weather History Graph

Daily Weather History Graph

Search for Another Location

Airport or City:

Trip Planner

Search our weather history database for the weather conditions in past years. The results will help you decide how hot, cold, wet, or windy it might be!

Date:

Astronomy

Feb. 16, 2013 Rise Set
Actual Time 7:11 AM PST 5:40 PM PST
Civil Twilight 6:41 AM PST 6:10 PM PST
Nautical Twilight 6:06 AM PST 6:45 PM PST
Astronomical Twilight 5:31 AM PST 7:19 PM PST
Moon 10:05 AM PST (2/16) 12:07 AM PST (2/16)
Length of Visible Light 11h 29m
Length of Day
10h 28m
Waxing Crescent, 40% of the Moon is Illuminated
Feb 16
Waxing Crescent
Feb 17
First Quarter
Feb 25
Full
Mar 4
Last Quarter
Mar 11
New

Hourly Weather History & Observations

Time (PST) Temp. Windchill Dew Point Humidity Pressure Visibility Wind Dir Wind Speed Gust Speed Precip Events Conditions
12:04 AM 37.4 °F - 35.6 °F 93% 30.22 in 2.0 mi Calm Calm - N/A   Clear
12:13 AM 37.4 °F - 35.6 °F 93% 30.22 in 7.0 mi Calm Calm - N/A   Clear
12:53 AM 37.0 °F - 36.0 °F 96% 30.22 in 10.0 mi Calm Calm - N/A   Clear
1:53 AM 35.1 °F - 34.0 °F 96% 30.22 in 4.0 mi Calm Calm - N/A   Clear
2:53 AM 35.1 °F - 34.0 °F 96% 30.22 in 7.0 mi Calm Calm - N/A   Clear
3:50 AM 35.6 °F - 33.8 °F 93% 30.22 in 6.0 mi Calm Calm - N/A   Mostly Cloudy
3:53 AM 36.0 °F - 35.1 °F 97% 30.22 in 7.0 mi Calm Calm - N/A   Mostly Cloudy
4:53 AM 39.0 °F - 37.9 °F 96% 30.22 in 10.0 mi Calm Calm - N/A   Overcast
5:53 AM 39.9 °F 37.8 °F 37.9 °F 93% 30.24 in 9.0 mi SSW 3.5 mph - N/A   Overcast
6:37 AM 39.2 °F - 37.4 °F 93% 30.24 in 10.0 mi Calm Calm - N/A   Mostly Cloudy
6:53 AM 39.0 °F - 37.0 °F 93% 30.25 in 9.0 mi Calm Calm - N/A   Overcast
7:29 AM 41.0 °F - 39.2 °F 93% 30.25 in 10.0 mi Calm Calm - N/A   Overcast
7:53 AM 42.1 °F - 39.9 °F 92% 30.25 in 10.0 mi Calm Calm - N/A   Overcast
8:22 AM 42.8 °F - 39.2 °F 87% 30.25 in 10.0 mi Calm Calm - N/A   Overcast
8:35 AM 42.8 °F - 41.0 °F 93% 30.26 in 10.0 mi Calm Calm - N/A   Overcast
8:42 AM 42.8 °F - 41.0 °F 93% 30.26 in 9.0 mi Calm Calm - N/A   Overcast
8:53 AM 44.1 °F - 41.0 °F 89% 30.26 in 10.0 mi Calm Calm - N/A   Overcast
9:53 AM 45.0 °F 43.5 °F 43.0 °F 93% 30.27 in 4.0 mi East 3.5 mph - 0.00 in   Overcast
10:15 AM 44.6 °F - 42.8 °F 93% 30.26 in 4.0 mi Calm Calm - 0.01 in Rain Light Rain
10:31 AM 44.6 °F - 42.8 °F 93% 30.26 in 2.5 mi Calm Calm - 0.01 in Rain Light Rain
10:37 AM 46.4 °F - 42.8 °F 87% 30.26 in 3.0 mi Calm Calm - 0.01 in   Overcast
10:51 AM 46.4 °F - 44.6 °F 93% 30.26 in 2.5 mi Calm Calm - 0.01 in Rain Light Rain
10:53 AM 46.0 °F - 44.1 °F 93% 30.26 in 2.5 mi Calm Calm - 0.01 in Rain Light Rain
11:53 AM 46.0 °F 44.8 °F 44.1 °F 93% 30.26 in 2.0 mi ESE 3.5 mph - 0.05 in Rain Rain
12:04 PM 46.4 °F 45.2 °F 44.6 °F 93% 30.26 in 4.0 mi ESE 3.5 mph - 0.01 in Rain Light Rain
12:14 PM 48.2 °F - 46.4 °F 93% 30.25 in 6.0 mi SE 4.6 mph - 0.01 in   Overcast
12:37 PM 46.4 °F 44.3 °F 42.8 °F 87% 30.25 in 1.8 mi Variable 4.6 mph - 0.08 in Rain Heavy Rain
12:42 PM 48.2 °F - 41.0 °F 76% 30.25 in 3.0 mi Variable 4.6 mph - 0.08 in Rain Light Rain
12:53 PM 46.9 °F - 44.1 °F 90% 30.25 in 10.0 mi Variable 3.5 mph - 0.08 in Rain Light Rain
1:53 PM 48.9 °F - 41.0 °F 74% 30.23 in 10.0 mi NW 8.1 mph 19.6 mph 0.00 in   Overcast
2:53 PM 51.1 °F - 41.0 °F 68% 30.22 in 10.0 mi WNW 8.1 mph - 0.00 in Rain Light Rain
3:53 PM 48.0 °F - 39.0 °F 71% 30.23 in 10.0 mi Calm Calm - N/A   Partly Cloudy
4:53 PM 48.0 °F - 37.9 °F 68% 30.24 in 10.0 mi Variable 5.8 mph - N/A   Scattered Clouds
5:53 PM 43.0 °F 40.3 °F 37.0 °F 80% 30.25 in 10.0 mi NE 4.6 mph - N/A   Partly Cloudy
6:53 PM 43.0 °F 40.3 °F 36.0 °F 76% 30.25 in 10.0 mi NNW 4.6 mph - N/A   Clear
7:53 PM 39.9 °F - 35.1 °F 83% 30.26 in 10.0 mi Calm Calm - N/A   Partly Cloudy
8:53 PM 37.9 °F - 34.0 °F 86% 30.27 in 10.0 mi Calm Calm - N/A   Partly Cloudy
9:53 PM 37.0 °F - 33.1 °F 86% 30.28 in 10.0 mi Calm Calm - N/A   Clear
10:53 PM 35.1 °F - 33.1 °F 92% 30.28 in 10.0 mi Calm Calm - 0.00 in   Partly Cloudy
11:53 PM 34.0 °F 31.0 °F 33.1 °F 96% 30.28 in 10.0 mi WSW 3.5 mph - N/A   Mostly Cloudy